Location: ????
(32.1652°N, 34.9775°E)
Time: 01:44:58
(UTC+00:00)

Daily predictions for brighter satellites

Satellite Brightness Start Highest point End
(mag) Time Altitude Azimuth Time Altitude Azimuth Time Altitude Azimuth
Cosmos 2154 Rocket 3.8 00:06:40 76° W 00:06:46 76° W 00:12:59 10° N
Cosmos 1295 Rocket 4.3 00:06:24 80° S 00:06:47 89° W 00:12:56 10° N
ATLAS 5 CENTAUR R/B 3.8 00:06:05 10° NW 00:08:39 25° WNW 00:08:39 25° WNW
IDEFIX/ARIANE 42P 2.5 00:07:11 10° NNE 00:12:22 75° ESE 00:12:25 75° ESE
Cosmos 1674 Rocket 4.1 00:09:29 10° N 00:13:22 58° NE 00:13:22 58° NE
Cosmos 1707 4.3 00:11:10 10° NNE 00:14:35 31° E 00:14:36 31° E
CBERS-1 3.9 00:09:30 10° NNE 00:14:35 83° E 00:14:35 83° E
Resurs 1-4 Rocket 3.8 00:16:04 10° NNW 00:19:08 20° NW 00:19:08 20° NW
ADEOS Rocket 3.2 00:21:22 48° WNW 00:21:22 48° WNW 00:25:56 10° NNW
ATLAS 2A CENTAUR R/B 4.0 00:18:58 46° WSW 00:21:49 69° S 01:00:48 10° E
Lacrosse 5 4.0 00:21:12 14° NW 00:22:16 15° NW 00:25:13 10° N
Chandra Rocket (1) 4.3 00:06:19 10° W 00:27:47 46° SW 00:33:49 10° SE
Cosmos 1190 Rocket 3.8 00:30:06 74° SSW 00:30:35 87° WNW 00:35:55 10° NNE
Meteor 1-21 4.2 00:26:38 10° N 00:32:27 86° E 00:34:32 42° S
MSX 3.7 00:27:42 10° NNE 00:33:27 86° E 00:34:56 53° S
Cosmos 1140 Rocket 3.5 00:34:49 60° W 00:35:04 61° WNW 00:40:16 10° N
Cosmos 1378 Rocket 3.5 00:30:53 10° N 00:34:51 72° NNW 00:34:51 72° NNW
NOSS 3-3 (A) 3.8 00:34:49 56° WSW 00:35:44 64° WNW 00:41:51 10° NNE
NOSS 3-3 (C) 3.7 00:34:57 56° WSW 00:35:50 65° WNW 00:41:56 10° NNE
Cosmos 1908 Rocket 3.6 00:36:30 66° NW 00:36:30 66° NW 00:40:24 10° N
Delta 142 4.2 00:36:57 58° SSW 00:37:35 62° S 00:42:42 10° ESE
Cosmos 1356 Rocket 4.3 00:44:00 37° NW 00:44:00 37° NW 00:46:57 10° N
Cosmos 1400 Rocket 4.4 00:42:26 23° SE 00:43:50 30° E 00:47:16 10° NNE
SL-8 Rocket 4.0 00:41:40 35° S 00:44:27 82° E 00:50:37 10° N
DELTA 2 DEB (DPAF) 4.1 00:45:04 61° W 00:45:04 61° W 00:49:10 10° NNW
Cosmos 1954 Rocket 4.1 00:43:24 47° S 00:44:56 77° ESE 00:50:15 10° NNE
Cosmos 2366 rocket 4.2 00:43:13 26° S 00:46:59 69° E 00:53:18 10° NNE
CZ-4B R/B 3.6 00:44:25 10° NNE 00:49:13 62° ESE 00:51:04 35° SSE
ERS-1 4.5 00:44:39 10° NNE 00:49:39 75° ESE 00:51:25 40° S
IKONOS-2 4.4 00:50:35 58° S 00:51:23 85° WSW 00:55:39 10° NNW
ARIANE 5 R/B 2.5 00:46:45 10° NNE 00:51:57 82° ESE 00:54:01 38° S
Cosmos 1674 3.6 00:55:19 10° N 00:59:02 46° E 01:01:46 16° SSE
ADEOS II 3.7 00:57:06 10° NNW 01:00:40 19° WNW 01:01:02 19° WNW
Spot 4 Rocket 4.5 00:58:26 10° NNE 01:03:32 59° ESE 01:07:06 19° S
CZ-4C R/B 3.5 00:57:39 10° NNW 01:05:22 68° ENE 01:13:57 10° SE
CZ-4C R/B 3.3 01:06:03 51° SW 01:06:44 61° W 01:10:51 10° NNW
SL-16 R/B 2.9 01:01:56 10° NW 01:06:44 31° W 01:06:44 31° W
IRS-1C 4.3 01:02:55 10° N 01:08:06 54° WNW 01:10:05 35° SW
Cosmos 2263 Rocket 3.1 01:07:40 29° W 01:09:15 33° WNW 01:14:22 10° N
Cosmos 2341 Rocket 4.3 01:07:02 33° SW 01:09:18 46° W 01:15:17 10° N
Okean 2 4.4 01:05:52 10° NNW 01:08:56 29° WNW 01:08:56 29° WNW
Cosmos 2218 Rocket 4.0 01:08:21 26° SSW 01:12:11 71° W 01:18:32 10° N
ASTRO E2 2.5 01:11:49 50° WSW 01:12:44 75° S 01:16:43 10° E
Cosmos 676 Rocket 4.2 01:11:07 35° SW 01:13:10 58° WNW 01:18:27 10° N
Okean 2 Rocket 4.2 01:10:14 10° SSE 01:14:29 43° E 01:18:47 10° NNE
Meteor 2-20 4.5 01:08:58 10° N 01:15:09 83° E 01:21:18 10° S
Delta 128 3.9 01:15:49 37° SW 01:17:13 51° S 01:22:03 10° E
CZ-2D R/B 3.3 01:13:48 10° N 01:17:47 68° WNW 01:19:24 35° SSW
Cosmos 1782 Rocket 4.0 01:17:35 36° WSW 01:18:34 42° W 01:22:43 10° N
Sich 1 Rocket 3.6 01:16:58 20° S 01:19:55 78° E 01:24:20 10° N
GEOS 3 Rocket 4.2 01:18:42 10° SE 01:23:58 63° NE 01:29:14 10° NNW
Cosmos 1727 Rocket 4.5 01:18:39 10° N 01:24:49 62° E 01:31:01 10° SSE
PAYLOAD A 4.1 01:21:06 10° N 01:26:31 82° WNW 01:30:40 17° SSW
CZ-2C R/B 2.8 01:27:10 10° NNE 01:30:52 74° E 01:33:51 16° S
Cosmos 1805 3.5 01:30:12 29° SW 01:31:49 49° W 01:35:36 10° N
Cosmos 1741 Rocket 4.2 01:27:41 13° S 01:32:18 70° ESE 01:37:33 10° NNE
Cosmos 2151 Rocket 4.2 01:29:04 10° S 01:33:20 56° E 01:37:38 10° NNE
Meteor 1-15 Rocket 4.3 01:27:57 13° S 01:33:21 82° W 01:39:16 10° N
USA 215 3.7 01:27:34 10° NNE 01:33:50 51° NW 01:38:35 18° WSW
ATLAS CENTAUR R/B 2.8 01:33:05 17° WNW 01:34:09 19° NW 01:37:00 10° N
ALOS 2.4 01:34:32 10° NNE 01:39:13 78° ESE 01:43:51 10° S
Milstar 3 3.1 01:35:02 20° SW 01:39:34 51° SSE 01:46:24 10° E
SL-08 R/B 3.5 01:36:56 10° S 01:41:43 52° W 01:46:33 10° NNW
KORONAS-FOTON 4.4 01:39:34 10° NNW 01:43:13 38° W 01:45:50 17° SSW
Cosmos 1844 3.9 01:38:04 10° S 01:43:35 70° ESE 01:49:06 10° NNE
Cosmos 1346 Rocket 4.2 01:42:04 10° N 01:45:45 39° E 01:49:24 10° SSE
Cosmos 1943 3.2 01:41:15 10° NNW 01:46:55 69° WSW 01:52:32 10° S
SL-14 R/B 3.5 01:45:46 10° N 01:49:39 72° E 01:53:34 10° SSE
Cosmos 1726 3.1 01:46:38 10° SSE 01:50:06 46° E 01:53:37 10° NNE
CZ-3B R/B 3.3 01:44:12 15° WSW 01:52:14 47° S 01:56:53 10° ESE
SL-24 R/B - RUBIN 2 4.2 01:51:35 10° NNW 01:56:18 61° ENE 02:00:36 10° SE
Cosmos 1300 Rocket 4.3 01:56:20 14° SW 01:59:35 34° W 02:03:32 10° NNW
Cosmos 1733 4.4 01:58:02 15° SW 02:00:12 24° W 02:03:24 10° NNW
Cosmos 1766 4.0 01:57:30 14° SW 02:00:21 33° W 02:03:54 10° NNW
Cosmos 1470 3.1 01:57:35 10° S 02:01:30 67° E 02:05:23 10° NNE
CZ-2C R/B 3.1 01:58:10 10° N 02:02:15 33° WNW 02:06:15 11° SW
Cosmos 1821 Rocket 4.0 01:59:44 10° SSW 02:05:49 60° W 02:11:52 10° N
Cosmos 1975 Rocket 4.2 02:06:00 10° NW 02:09:30 24° W 02:12:57 10° SW
Meteor 1-24 Rocket 4.1 02:06:00 10° N 02:11:56 73° E 02:17:37 10° SSE
METEOR-M 4.2 02:08:39 10° N 02:13:58 68° WNW 02:19:14 10° SSW
Meteor 2-5 Rocket 3.8 02:11:05 10° N 02:17:00 80° W 02:22:47 10° S
Cosmos 1184 Rocket 4.1 02:15:28 10° N 02:18:31 42° E 02:21:33 10° SSE
Cosmos 1484 Rocket 3.0 02:14:41 10° N 02:18:32 53° WNW 02:22:25 10° SSW
Okean 1 Rocket 3.1 02:15:45 10° S 02:20:07 87° W 02:24:33 10° N
Cosmos 540 Rocket 4.2 02:15:49 10° N 02:20:57 60° ENE 02:26:02 10° SSE
SeaSat 1 4.1 02:17:39 10° NE 02:22:04 33° ESE 02:26:27 10° S
Cosmos 1844 Rocket 3.3 02:17:40 10° SW 02:22:56 40° WNW 02:28:16 10° N
X-37B 3.6 02:23:11 10° SE 02:23:35 10° SE 02:24:00 10° SE
DNEPR-1 R/B 4.4 02:20:50 10° SW 02:26:34 52° WNW 02:31:20 10° NNE
CZ-3 R/B 3.2 02:19:09 10° WSW 02:42:49 56° S 02:49:19 10° E
